Theta_e
288 288 288 288 288 288 288 288 288 288 288 288 288 288 288 288 288 288 289 289 289 289 289 289 290 290 290 290 290 290 290 289 289 290 290 290 290 289 289 289 289 289 289 289 289 290 290 290 290 290 290 290 290 290 290 291 291 291 291 291 291 292 292 292 293 293 293 294 294 294 294 295 295 295 295 295 295 296 296 296 296 296 296 297 297 297
288 288 288 288 288 288 288 288 288 287 288 288 288 288 288 288 288 288 288 288 288 288 289 289 289 289 289 289 289 289 289 289 289 289 289 289 289 289 289 289 289 289 289 289 289 289 289 290 290 290 290 290 290 290 290 290 291 291 291 291 291 291 291 291 292 293 293 293 293 293 293 293 293 294 294 294 295 295 295 295 295 296 296 296 296 296
288 288 288 288 288 287 287 288 288 287 287 287 288 288 288 288 288 288 288 288 288 288 288 289 289 289 289 289 289 289 289 289 289 289 289 289 289 289 289 289 289 289 289 289 289 289 289 289 289 289 290 290 290 290 290 290 290 291 291 291 291 291 291 291 291 292 292 292 292 292 292 292 292 293 293 293 294 294 294 294 295 295 295 296 296 296
287 287 287 288 287 287 287 287 287 287 287 287 287 287 287 287 287 288 288 288 288 288 289 289 289 289 289 289 289 289 289 289 289 289 289 289 289 289 289 289 289 289 289 289 289 289 289 289 289 290 290 290 290 290 290 290 291 291 291 291 291 291 291 291 291 291 291 292 292 292 292 292 292 292 292 293 293 293 294 294 294 295 295 295 296 296
287 287 287 287 287 287 287 287 287 287 287 287 287 287 287 287 288 288 288 288 288 289 289 289 289 289 289 289 289 289 289 289 289 289 289 289 289 289 289 289 289 289 289 289 289 289 289 289 290 290 290 290 290 290 290 290 290 291 291 291 291 291 291 291 291 291 291 291 291 291 292 292 292 292 293 293 293 294 294 294 294 295 295 295 296 296
287 287 287 287 287 287 287 287 287 287 287 287 287 287 287 287 288 288 288 289 289 289 289 289 289 289 289 289 289 289 289 289 289 289 289 289 289 289 289 289 289 289 289 289 289 289 289 289 290 290 290 290 290 290 290 290 290 290 290 290 291 291 291 291 291 291 291 292 292 292 292 292 292 292 292 293 293 293 294 294 294 294 295 295 295 295
287 287 287 287 287 287 287 287 287 287 287 287 287 287 288 288 288 288 289 289 289 289 289 289 289 289 289 289 289 289 289 289 289 289 289 289 289 289 289 289 289 289 289 289 289 289 289 289 289 290 290 290 290 290 290 290 290 290 290 290 290 290 290 290 291 291 291 291 291 291 292 292 292 292 292 292 293 293 293 293 294 294 294 294 295 295
286 287 287 286 286 287 287 287 287 287 287 287 287 288 288 288 288 289 289 289 289 289 289 289 289 289 289 289 289 289 289 289 289 289 289 289 289 289 289 289 289 289 289 289 289 289 289 290 289 290 290 290 290 290 290 290 290 290 290 290 290 290 290 290 290 290 290 290 290 291 291 291 291 291 291 292 292 292 293 293 293 293 294 294 294 294
286 286 286 286 286 287 287 287 287 287 287 288 288 288 288 288 289 289 289 289 289 289 289 290 290 290 289 290 290 290 290 290 290 290 290 290 290 289 289 289 290 290 289 289 289 289 289 289 289 290 290 290 290 290 290 290 290 290 290 290 290 290 290 290 290 290 290 290 290 290 290 290 290 291 291 291 291 292 292 293 293 293 293 293 294 294
286 286 286 287 287 287 287 288 288 288 288 288 288 288 289 289 289 289 289 289 289 290 290 290 290 290 290 290 290 290 290 290 290 290 290 290 290 290 290 290 290 290 289 289 289 289 289 289 290 290 290 290 290 290 290 290 290 290 290 290 290 290 290 290 290 290 290 290 290 290 290 290 290 290 290 291 291 291 292 292 293 293 293 293 293 294
287 287 287 287 287 288 288 288 288 288 288 288 288 289 289 289 289 290 290 290 290 290 290 290 290 290 290 290 290 290 290 290 290 290 290 290 290 290 290 290 290 290 289 290 290 290 290 290 290 290 290 290 290 290 290 290 290 290 290 290 290 290 290 290 290 290 290 290 290 290 290 290 290 290 290 290 291 291 292 292 292 293 293 293 293 293
287 287 287 288 288 288 288 288 288 288 288 289 289 289 289 290 290 290 290 290 290 290 290 290 290 290 290 290 290 290 290 290 290 290 290 290 290 290 290 290 290 290 290 290 290 290 290 290 290 290 290 290 290 290 290 290 290 290 290 290 290 290 290 290 290 290 290 290 290 290 290 290 290 290 290 291 291 291 292 292 292 292 292 293 293 293
287 287 288 288 288 288 288 288 288 288 289 289 289 289 289 290 290 290 290 290 290 290 290 290 290 290 290 290 290 290 290 290 290 290 290 290 290 290 290 290 290 290 290 290 290 290 290 290 290 290 290 289 289 289 289 289 289 290 290 290 290 290 290 290 290 290 290 290 290 291 291 291 291 291 291 291 292 292 292 292 292 292 292 292 292 293
287 288 288 288 288 288 288 288 289 289 289 289 289 289 290 290 290 290 290 290 290 290 290 290 290 290 290 290 290 290 290 290 290 290 290 290 290 290 290 290 290 290 290 290 290 290 290 290 290 290 290 289 289 289 289 289 289 290 290 290 290 290 290 290 290 290 290 290 291 291 291 291 291 291 291 291 292 292 292 292 292 292 292 292 292 292
287 288 288 288 288 288 288 289 289 289 289 289 289 289 290 290 290 290 290 290 290 290 290 290 290 290 290 290 290 290 290 290 290 290 290 289 289 289 289 290 290 290 290 290 290 290 290 290 290 290 289 289 289 289 289 289 289 289 289 289 290 290 290 290 290 290 290 290 290 290 290 291 291 291 291 291 291 291 292 292 292 292 292 292 292 292
288 288 288 288 288 288 288 289 289 289 289 289 289 289 289 290 290 290 290 290 290 290 290 290 290 290 290 290 290 290 290 290 290 289 289 289 289 289 289 289 289 289 289 289 289 289 289 289 289 289 289 289 289 289 289 289 290 290 290 290 290 290 290 290 290 290 290 290 290 290 290 290 290 291 291 291 291 291 291 291 291 292 292 292 292 292
288 288 288 288 288 288 289 289 289 289 289 289 289 289 289 289 290 290 290 290 290 290 290 290 290 290 290 290 290 290 290 289 289 289 289 289 289 289 289 289 289 289 289 289 289 289 289 289 289 289 289 289 289 289 289 290 290 290 290 290 290 290 290 290 290 290 290 290 290 290 290 290 290 290 290 290 291 291 291 291 291 291 291 291 291 291
288 288 288 288 288 289 289 289 289 289 289 289 289 289 289 289 289 289 290 290 290 290 290 289 290 290 290 289 289 289 289 289 289 289 289 288 288 288 288 288 288 288 288 288 288 288 288 289 289 289 289 289 289 289 289 289 290 290 290 290 290 290 290 290 290 290 290 290 290 290 290 290 290 291 291 291 291 291 291 291 291 291 291 291 291 291
288 288 288 288 288 288 289 289 289 289 289 289 289 289 289 289 289 289 289 289 289 289 289 289 289 289 289 289 289 289 289 289 289 288 288 288 288 288 288 288 288 288 288 288 288 288 288 288 288 288 288 289 289 289 289 289 289 290 290 290 290 290 290 290 290 290 290 290 290 291 291 291 291 291 291 291 291 291 291 291 291 291 291 291 291 291
288 288 288 289 289 289 289 289 289 289 289 289 289 289 289 289 289 289 289 289 289 289 289 289 289 289 289 289 289 289 289 288 288 288 288 288 288 288 288 288 288 288 288 288 288 288 288 288 288 288 289 289 289 289 289 289 289 290 290 290 290 290 290 290 290 290 290 290 290 291 291 291 291 291 291 291 291 291 291 291 291 291 291 291 291 291
288 289 289 289 289 289 289 289 289 289 289 289 289 289 289 289 289 289 289 289 289 289 289 289 289 289 289 289 289 288 288 288 288 288 288 288 288 288 288 288 288 288 288 288 288 288 288 288 288 288 289 289 289 289 289 289 289 289 290 290 290 290 290 290 290 290 291 291 291 291 291 291 291 291 291 291 291 291 291 291 291 291 291 291 291 292
289 289 289 289 289 289 289 289 289 289 289 289 289 289 289 289 289 289 289 289 289 289 289 289 289 289 288 288 288 288 288 288 288 287 287 288 288 287 288 288 288 288 288 288 288 288 288 288 288 288 288 288 289 289 289 289 289 289 290 290 290 290 290 290 290 291 291 291 291 291 291 291 291 291 291 291 291 291 291 291 291 291 291 291 291 292
290 289 289 289 290 290 290 290 289 289 289 289 289 289 289 289 289 289 289 289 289 289 289 288 288 288 287 287 287 287 287 287 287 287 287 287 287 287 287 287 288 288 288 288 288 288 288 288 288 288 288 288 288 288 288 289 289 289 289 290 290 290 290 290 290 291 291 291 291 291 291 291 291 291 291 291 291 291 291 291 291 291 291 291 291 291
290 290 290 290 290 290 290 290 290 289 289 289 289 289 289 289 289 289 289 289 288 288 288 287 287 287 286 286 286 286 286 286 286 286 286 287 287 287 287 287 287 287 287 287 287 287 288 288 288 288 288 288 288 288 288 288 289 289 289 289 289 290 290 290 290 290 290 291 291 291 291 291 291 292 292 292 292 292 292 292 291 291 291 291 291 291
290 291 291 291 290 290 289 289 289 288 288 288 288 288 288 288 288 288 288 288 288 287 287 286 286 286 286 285 285 286 286 286 286 286 286 286 287 287 287 287 287 287 287 287 287 287 287 287 287 287 288 288 288 288 288 288 289 289 289 289 289 289 290 290 290 290 290 290 290 291 291 291 291 291 292 292 292 292 292 292 292 292 292 292 292 292
291 291 290 290 289 289 288 288 288 288 288 288 288 288 288 288 288 288 287 287 286 286 285 285 285 285 285 285 285 286 286 286 286 286 286 286 286 286 286 287 287 287 287 287 287 287 287 287 287 287 288 288 288 288 288 288 288 289 289 289 289 289 289 290 290 290 290 290 290 290 291 291 291 291 291 291 292 292 292 292 292 292 292 292 292 292
290 289 289 288 288 287 287 287 287 287 288 288 288 288 288 287 287 287 286 286 286 285 285 285 285 285 285 285 285 285 285 285 285 285 286 286 286 286 286 286 287 287 287 287 287 287 287 287 288 288 288 288 288 288 288 288 289 289 289 289 289 289 290 290 290 290 290 290 290 290 290 291 291 291 291 291 291 292 292 292 292 292 292 292 292 292
289 288 288 287 287 287 287 287 287 288 288 288 288 288 287 287 286 286 286 286 286 285 284 284 284 284 285 285 285 285 285 285 285 285 286 286 286 286 286 286 287 287 287 287 287 287 287 288 288 288 288 288 288 288 288 289 289 289 289 289 289 289 290 290 290 290 290 290 290 290 290 291 291 291 291 291 291 291 292 292 292 292 292 292 292 292
288 287 287 287 287 287 287 287 288 288 288 289 289 288 287 286 286 286 286 286 285 284 284 284 284 284 284 284 284 284 285 285 285 285 286 286 286 286 286 286 287 287 287 287 287 287 287 288 288 288 288 288 288 289 289 289 289 289 289 289 289 289 290 290 290 290 290 290 290 290 291 291 291 291 291 291 291 291 291 291 292 292 292 292 292 292
287 287 286 287 287 287 287 288 288 289 289 289 289 289 288 287 286 286 286 285 284 284 284 283 284 284 284 284 284 284 285 285 285 285 286 286 286 286 286 286 286 287 287 287 287 287 288 288 288 288 288 288 289 289 289 289 289 289 289 289 289 289 290 290 290 290 290 290 290 290 290 291 291 291 291 291 291 291 291 291 292 292 292 292 292 292
286 286 286 286 287 287 288 288 289 289 290 290 289 289 288 287 287 286 285 284 284 283 283 283 283 284 284 284 284 285 285 285 285 285 285 286 286 286 286 286 286 287 287 287 288 288 288 288 288 288 288 289 289 289 289 289 289 289 289 289 289 290 290 290 290 290 290 290 290 290 290 291 291 291 291 291 291 291 291 291 292 292 292 292 292 292
286 286 286 286 287 287 288 289 289 290 290 290 289 289 288 287 286 285 284 284 283 283 283 283 284 284 284 284 284 285 285 285 285 285 285 286 286 286 286 286 287 287 287 287 288 288 288 288 288 288 289 289 289 289 289 289 289 289 289 289 290 290 290 290 290 290 290 290 290 290 291 291 291 291 291 291 291 291 291 291 291 292 292 292 292 292
286 286 286 287 287 288 289 289 290 290 290 289 289 289 288 287 285 284 283 283 283 283 283 283 284 284 284 284 284 284 284 284 285 285 285 285 286 286 286 286 287 287 287 287 287 288 288 288 288 288 288 288 288 288 288 288 289 289 289 290 290 290 290 290 290 290 290 290 290 290 290 290 290 290 290 291 291 291 291 291 291 291 291 292 292 292
286 286 286 287 288 289 289 290 290 290 289 289 288 288 287 285 284 283 283 283 283 283 283 283 283 283 283 283 284 284 284 284 284 284 285 285 285 286 286 286 287 287 287 287 287 288 288 288 288 288 288 287 287 287 288 288 288 288 289 289 289 289 289 289 288 288 288 288 288 288 288 289 289 289 290 290 290 290 290 291 291 291 291 291 292 292
286 286 287 287 288 289 290 290 290 289 289 288 288 287 286 285 284 283 283 283 283 283 283 283 283 283 283 283 283 284 284 284 284 284 284 285 285 286 286 286 286 287 287 287 287 288 287 287 287 286 286 286 286 287 287 287 287 288 288 288 288 287 287 287 287 287 287 287 287 287 287 287 287 288 288 288 289 289 289 290 290 290 291 291 291 291
286 286 287 288 288 289 290 290 289 289 288 287 287 286 285 284 284 283 283 283 283 283 283 283 283 283 283 283 283 284 284 284 284 284 284 284 285 285 285 286 286 286 286 287 287 287 286 285 285 285 285 286 286 286 286 286 287 287 287 286 286 286 286 286 286 286 286 286 286 286 286 286 286 286 286 287 287 288 288 289 289 289 289 289 290 290
286 287 287 288 288 289 289 289 289 288 287 286 286 286 285 284 284 283 283 283 283 283 283 283 283 283 283 283 283 283 283 283 283 284 284 284 284 284 284 285 285 285 286 286 286 285 285 284 284 285 285 285 285 286 286 286 286 286 286 286 286 286 286 285 285 285 285 285 285 285 285 285 285 285 285 286 286 286 287 287 287 288 288 288 288 289
286 286 287 287 288 288 288 287 287 287 286 285 286 286 285 285 284 284 283 283 283 283 283 282 283 283 283 283 283 283 283 283 283 284 284 284 284 284 284 284 284 284 285 285 284 284 284 284 284 284 285 285 285 285 285 285 285 285 285 285 285 285 285 285 285 285 285 285 285 285 285 285 285 285 285 285 285 285 286 286 286 287 287 287 287 288
286 286 286 287 287 287 287 286 286 286 286 286 286 286 285 285 284 284 283 283 283 282 282 282 283 282 282 282 282 283 283 283 284 284 284 283 283 283 283 284 284 283 283 283 283 283 283 284 284 284 284 285 285 285 285 285 285 285 285 285 285 285 285 285 285 284 284 284 284 285 285 285 285 285 285 285 285 285 285 285 285 286 286 286 287 287
285 285 286 286 287 287 286 286 286 286 286 286 286 286 285 284 284 283 283 283 282 282 282 282 282 282 282 282 283 283 284 284 284 284 283 283 283 283 283 283 283 283 283 283 283 283 283 283 284 284 284 284 284 285 285 285 285 285 285 285 285 284 284 284 284 284 284 284 284 284 285 285 285 285 285 285 284 284 285 285 285 285 285 286 286 286
284 284 285 286 286 286 286 286 286 286 286 286 285 285 284 283 283 283 283 282 282 282 282 282 282 282 282 283 283 284 284 284 283 283 283 283 283 283 283 283 283 283 283 283 283 283 283 284 284 284 284 284 284 284 284 285 285 285 285 284 284 284 284 284 284 284 284 284 284 284 284 284 284 284 284 285 284 284 285 285 285 285 285 285 285 285
283 284 284 286 286 286 286 286 286 286 286 285 284 283 283 283 282 282 282 282 282 282 282 282 282 282 282 283 283 284 284 284 283 283 283 283 283 283 283 283 283 283 283 283 283 283 284 284 284 284 284 284 284 284 284 284 284 284 284 284 283 283 283 284 284 284 284 284 284 284 284 284 284 284 284 284 284 285 285 285 285 285 285 285 285 285
283 284 285 286 286 286 286 286 286 285 285 284 284 283 283 283 282 282 282 282 282 282 282 282 282 282 282 282 283 284 284 284 284 283 283 283 283 282 282 282 283 283 283 283 283 283 283 284 284 284 284 284 284 284 284 284 284 284 284 283 283 283 283 283 283 284 284 284 284 284 284 284 284 284 284 284 284 284 284 284 284 285 285 285 285 285
284 285 285 286 285 285 285 285 285 285 284 284 284 283 283 283 282 282 282 282 282 282 282 282 282 282 282 282 282 283 283 284 284 283 283 283 283 282 282 283 283 283 283 283 283 283 283 283 284 284 284 284 284 284 284 284 284 284 283 283 283 283 282 283 283 283 283 284 284 284 284 284 284 284 284 284 284 284 284 284 285 285 285 285 285 285
284 285 285 285 285 285 285 285 285 285 284 284 283 283 283 283 282 282 281 282 282 282 282 282 282 282 282 282 282 282 282 283 283 283 283 283 283 283 283 283 283 283 283 283 283 283 283 283 284 284 284 284 284 284 284 284 284 283 283 283 283 283 283 283 283 283 283 283 283 283 284 284 284 284 284 284 284 284 285 285 285 285 285 285 285 286
284 284 284 284 284 284 285 285 285 284 284 283 283 282 283 282 282 282 281 281 282 282 282 282 282 282 282 282 282 282 282 282 283 283 283 283 283 283 283 283 283 283 283 283 284 284 284 284 284 284 284 284 284 284 284 284 283 283 283 283 283 283 283 283 283 283 283 283 283 283 284 284 284 284 284 284 284 284 285 285 285 285 285 286 286 286
282 282 283 283 284 284 284 284 284 283 282 282 282 282 282 282 282 281 281 281 282 282 282 282 282 282 282 282 282 282 282 282 282 283 283 283 283 283 283 284 284 284 284 284 284 284 284 284 284 284 284 284 284 284 284 283 283 283 283 283 282 282 282 282 283 283 283 283 283 283 283 283 283 283 283 284 284 284 284 285 285 285 285 286 286 286
281 281 282 282 283 283 283 283 283 282 281 281 282 282 282 282 281 281 281 282 282 282 282 281 281 281 282 282 282 282 282 282 282 282 283 283 283 284 284 284 284 284 284 284 284 284 284 284 284 284 284 284 284 284 283 283 283 283 283 282 282 282 282 282 282 282 283 283 283 283 283 283 283 283 283 283 284 284 284 284 285 285 285 286 286 285
281 281 282 282 282 282 282 282 282 281 280 281 281 281 282 282 281 281 281 281 281 281 281 281 281 281 282 282 282 282 282 282 282 282 283 283 283 283 283 284 284 284 284 283 283 283 283 284 284 284 284 284 284 283 283 283 283 283 283 282 282 282 282 282 282 282 282 282 283 283 283 283 283 283 283 283 283 283 284 284 285 285 285 286 285 285
281 281 281 281 281 281 281 281 281 280 280 280 280 280 281 281 281 281 282 281 281 281 281 281 281 281 281 282 282 282 282 282 282 282 283 283 283 283 283 283 283 283 283 283 282 282 282 282 283 284 284 283 283 283 283 283 282 282 282 282 282 282 281 282 282 282 282 282 282 282 282 282 282 282 282 283 283 283 283 284 284 285 285 285 285 285
281 281 281 281 280 280 281 281 281 280 280 280 280 280 280 281 281 281 282 281 281 281 281 281 281 281 281 282 282 282 282 282 282 282 283 283 283 282 282 282 282 282 281 281 281 281 281 281 282 282 283 283 283 282 282 282 282 282 282 282 282 281 281 281 281 282 282 282 282 282 282 282 282 282 282 282 283 283 283 283 284 284 285 285 285 285
Wind_Speed
46 48 48 47 47 47 48 47 46 46 46 47 47 47 46 46 46 46 46 45 45 45 46 46 46 47 47 47 47 46 46 46 45 45 45 45 45 45 45 45 45 45 44 44 44 43 42 42 42 41 41 41 41 42 42 42 42 42 42 42 42 42 42 43 43 43 43 44 44 44 44 44 44 44 44 44 44 44 44 44 44 44 44 43 43 43
48 48 47 46 46 46 47 47 45 44 45 46 47 46 46 46 46 46 46 45 45 44 45 45 46 47 47 48 48 47 47 46 46 45 45 45 45 45 46 46 46 46 46 45 45 44 44 43 43 43 43 43 43 43 43 43 43 43 43 43 42 42 42 42 42 43 44 44 45 45 45 45 45 45 45 45 45 45 45 44 44 44 44 44 44 43
48 48 47 46 45 44 45 46 45 44 44 45 46 46 45 46 46 45 45 45 45 44 44 45 46 47 48 49 48 48 47 46 46 45 45 45 45 46 46 46 46 46 46 46 46 46 45 45 45 44 44 44 44 44 44 44 44 44 44 44 43 43 42 42 42 43 44 44 44 44 45 45 45 45 45 45 45 45 45 45 45 45 45 45 44 44
47 46 46 45 44 44 44 44 44 44 43 44 44 45 44 44 44 44 44 45 45 45 45 46 46 48 48 49 48 48 47 46 45 45 45 45 46 46 46 46 46 46 46 47 47 47 47 46 45 45 44 44 44 44 44 44 44 44 44 44 44 44 43 43 43 43 43 43 44 44 44 44 44 45 45 45 45 45 45 45 45 45 45 45 45 45
46 44 44 44 44 44 45 44 43 43 43 43 43 43 43 43 43 44 44 44 44 45 46 46 47 47 47 48 48 47 46 46 45 46 46 46 46 46 46 46 46 46 47 47 48 48 47 47 46 45 45 44 44 44 44 44 44 43 43 43 43 43 43 44 44 44 43 43 43 43 43 44 44 44 44 44 44 45 45 45 45 45 45 45 45 45
45 44 43 42 42 43 44 43 42 41 41 42 42 42 42 42 43 43 44 44 44 45 45 45 45 45 46 47 47 47 46 46 46 46 47 47 47 47 47 47 47 47 47 48 48 48 47 47 46 45 45 44 44 43 43 43 42 42 42 42 42 41 41 42 42 42 43 43 43 43 43 43 43 43 43 44 44 44 45 45 45 45 45 45 45 45
45 43 42 42 42 42 42 41 41 40 39 40 41 42 42 42 42 43 44 45 45 45 45 45 45 45 45 46 46 46 47 47 47 47 48 48 49 49 48 48 48 48 48 48 48 48 47 47 47 46 45 44 43 43 43 42 42 41 41 40 40 40 39 40 40 40 40 41 41 41 41 42 42 42 42 43 43 44 44 45 45 45 45 45 45 45
44 44 42 42 42 43 41 40 40 39 38 39 40 42 43 44 43 43 44 45 45 44 43 44 45 45 45 45 45 45 46 46 48 49 50 49 49 50 49 49 50 50 49 49 48 48 47 47 46 46 45 44 44 43 43 43 43 43 42 41 41 40 40 40 40 40 40 40 40 40 40 41 41 41 42 42 43 43 44 44 44 45 45 45 45 45
41 43 43 41 41 41 41 41 40 38 37 37 39 40 43 44 45 44 44 43 42 41 40 41 43 44 43 44 43 43 44 46 48 50 51 50 51 51 51 51 50 50 50 49 48 48 47 46 46 46 45 45 45 45 45 45 45 45 45 44 44 44 43 43 43 42 42 41 41 41 41 41 41 41 42 42 43 43 44 44 44 44 44 45 45 45
39 40 41 41 40 38 38 40 40 39 37 37 38 39 39 41 42 43 43 42 41 39 38 38 40 41 43 43 42 43 44 47 49 50 50 50 50 50 50 49 49 49 48 48 47 47 46 46 45 45 45 45 45 45 46 47 47 47 47 47 46 46 46 46 46 46 45 45 44 44 43 43 43 43 44 44 45 45 44 44 44 44 44 45 45 45
37 37 38 39 38 37 36 37 39 39 38 37 38 38 36 36 37 38 41 43 43 42 40 40 40 40 41 42 43 45 46 49 50 51 51 50 49 48 47 46 45 45 46 46 45 45 45 44 44 44 44 45 45 46 47 48 48 48 48 48 48 48 48 49 49 49 48 48 48 47 47 46 46 46 46 46 46 45 45 45 45 45 45 45 45 45
36 36 36 36 37 37 36 37 37 37 36 37 37 37 36 35 35 36 39 42 44 44 44 43 42 41 41 42 44 46 47 48 48 49 48 47 45 44 43 43 44 44 45 45 45 44 44 43 43 43 44 45 46 47 47 48 48 48 48 48 48 48 49 49 49 50 50 49 49 49 49 49 48 48 47 47 46 46 46 46 45 45 45 45 45 46
35 35 35 36 36 36 36 36 36 36 35 35 35 36 37 37 36 36 39 43 44 44 44 44 43 43 42 42 42 43 43 44 44 43 43 41 40 40 40 41 42 44 44 44 43 43 43 42 42 43 44 45 47 48 49 49 48 48 47 47 47 48 48 49 49 50 50 50 50 50 49 49 49 48 48 47 47 46 46 46 46 46 46 46 46 46
34 34 34 35 36 36 35 35 35 36 35 35 35 36 37 38 38 38 39 42 43 43 43 44 44 45 44 42 41 40 40 40 41 40 40 39 38 38 39 41 43 43 43 42 42 42 42 42 43 44 45 47 48 49 49 49 48 47 46 46 47 47 48 49 49 50 50 50 50 50 50 49 49 48 48 47 47 47 46 46 46 46 46 46 46 46
34 34 34 35 36 35 35 35 35 36 36 37 37 37 39 40 40 39 39 41 43 44 44 44 45 46 45 42 38 36 36 37 39 40 41 41 40 39 39 41 43 43 43 42 42 43 42 42 43 44 45 46 47 47 47 47 46 45 45 45 46 47 47 48 49 50 50 50 50 50 50 50 50 49 48 48 47 47 47 46 46 46 46 46 46 46
33 33 34 35 36 36 36 35 35 36 37 38 37 37 38 39 40 41 41 42 43 44 44 43 45 46 45 42 37 33 32 35 39 42 45 45 43 41 39 40 42 44 44 43 43 43 43 43 44 44 45 46 46 46 45 45 44 44 45 45 45 46 47 47 48 49 49 49 49 49 50 50 50 49 49 48 47 47 47 46 46 46 46 46 46 46
33 33 34 35 36 37 37 36 36 36 37 38 38 39 39 40 41 41 42 43 43 43 42 42 42 42 42 43 39 35 33 35 40 44 47 48 47 44 40 40 43 47 46 46 45 44 44 45 45 45 45 45 45 44 44 44 44 45 45 45 46 46 46 47 47 48 48 48 48 48 48 48 49 49 49 49 48 48 47 47 47 47 47 47 47 48
34 34 34 35 36 37 38 37 36 36 37 38 39 40 41 41 42 43 43 43 43 42 42 42 41 41 40 40 41 41 37 38 42 46 49 49 49 46 43 42 43 45 48 48 48 48 46 46 47 47 46 45 44 44 43 43 43 44 44 44 44 45 45 46 46 47 47 47 47 47 47 47 47 48 48 49 49 49 48 48 47 47 47 48 48 49
36 37 37 37 38 39 39 38 38 38 38 39 40 42 44 44 44 44 45 44 44 43 43 43 43 42 41 42 44 44 41 40 43 47 50 50 49 47 44 42 43 45 47 48 47 46 44 45 45 45 45 43 42 42 42 42 42 42 42 42 43 43 44 44 45 45 45 46 46 47 47 47 48 48 48 48 49 49 49 48 48 48 48 48 48 48
37 38 37 37 38 40 40 40 40 39 39 40 44 46 48 49 47 45 44 43 42 42 43 44 44 43 43 45 46 46 44 43 45 48 50 50 49 47 43 41 42 44 45 44 43 42 42 42 42 42 42 42 42 42 42 42 42 41 41 42 42 42 43 43 44 44 44 45 46 46 47 47 48 48 48 48 49 49 49 49 49 48 48 48 48 49
40 41 40 39 39 41 43 43 42 42 43 45 47 50 52 50 48 45 44 43 43 43 43 44 45 44 43 44 47 48 47 46 47 49 49 48 47 45 42 39 40 42 43 43 41 40 39 40 41 41 41 41 40 40 41 41 42 42 42 42 42 42 43 43 43 44 44 44 45 45 46 47 47 48 48 49 49 49 49 49 49 49 49 49 49 49
41 42 41 40 41 42 44 44 45 46 47 48 48 48 48 46 45 45 46 45 46 45 45 45 46 48 48 50 51 51 50 47 46 47 47 47 47 45 41 37 36 39 41 41 40 39 39 40 40 41 41 41 42 42 41 41 41 41 42 42 42 43 43 43 43 44 44 44 44 45 46 46 47 47 48 49 49 49 50 50 50 50 50 50 50 50
40 42 41 41 41 42 43 45 47 48 49 48 47 46 45 45 46 48 49 48 47 48 50 52 53 54 54 53 52 50 47 42 40 40 42 42 42 42 39 36 36 38 39 40 40 39 40 40 41 41 42 42 42 42 41 41 41 41 41 41 42 43 43 44 44 44 44 45 45 45 45 46 46 47 48 48 49 49 49 50 50 50 50 50 50 50
40 41 41 41 41 41 43 45 47 48 48 48 49 49 49 49 49 49 49 49 50 52 54 56 55 53 49 47 45 42 39 36 33 34 37 38 40 40 38 36 37 38 40 41 40 40 41 41 41 41 41 42 41 41 41 41 41 40 40 40 41 41 42 42 43 44 44 45 45 45 45 45 45 46 46 47 47 48 48 49 49 49 49 50 50 50
38 38 38 39 40 41 44 46 47 48 49 49 50 50 48 47 47 47 49 52 53 51 49 48 46 44 42 40 38 36 35 33 31 31 34 36 38 39 38 36 36 39 41 42 40 39 40 41 41 40 40 41 41 41 40 40 40 40 40 40 40 40 41 41 41 42 42 43 43 44 44 44 44 44 44 45 45 46 46 47 47 48 48 48 48 49
34 35 37 41 45 47 49 49 48 47 46 45 44 43 43 44 47 49 51 52 49 45 43 42 41 40 38 36 35 35 34 32 30 30 32 35 38 39 39 37 36 38 40 40 39 38 38 39 40 40 41 41 41 41 40 40 40 40 40 40 40 40 40 41 41 41 41 42 43 43 43 44 44 44 44 44 44 44 45 45 45 45 46 46 47 47
37 42 46 49 50 50 48 46 44 42 41 40 41 42 44 47 49 50 49 46 43 40 39 38 38 38 37 35 34 34 33 32 31 31 32 34 37 39 38 36 35 36 38 39 39 38 38 39 40 40 41 41 41 41 40 40 40 40 40 40 40 40 40 40 41 42 42 43 43 44 44 44 44 44 44 44 44 44 44 44 44 44 44 44 45 46
46 49 50 49 48 46 44 42 41 41 41 42 44 45 45 45 45 44 43 40 38 37 37 36 36 36 35 35 35 35 35 33 32 31 31 32 35 36 36 35 34 36 37 40 40 40 39 38 39 39 40 40 40 40 39 39 39 39 39 39 39 39 40 41 42 43 44 45 46 46 45 45 45 45 45 45 44 44 44 44 44 44 44 44 45 46
49 48 47 46 44 43 42 42 43 44 45 44 44 42 40 38 36 36 36 35 34 35 36 36 36 35 36 37 37 37 36 33 31 29 27 29 32 34 35 35 35 36 37 40 41 41 39 37 35 35 37 37 37 37 37 38 38 38 39 39 40 41 42 43 44 45 46 47 47 47 46 46 46 47 46 46 45 45 45 45 44 44 44 45 46 47
47 46 45 45 44 44 44 45 46 45 43 41 38 35 32 29 29 29 30 30 31 33 35 36 36 36 37 37 37 36 34 31 28 25 26 29 33 36 36 36 36 36 36 37 39 39 38 36 33 31 32 34 35 36 37 38 40 41 42 43 43 44 45 45 46 46 47 47 47 47 47 47 47 47 46 46 46 45 45 45 44 44 44 45 47 48
46 46 46 45 45 44 45 45 44 42 39 35 32 29 27 26 26 27 28 29 30 32 34 36 36 36 37 36 34 33 33 33 30 28 28 32 35 37 38 38 39 39 37 36 35 35 36 36 35 32 32 32 34 37 38 39 41 42 42 43 44 44 45 45 45 46 46 46 46 46 47 47 47 47 46 46 46 46 45 45 44 43 43 45 47 48
46 46 45 45 44 44 43 43 41 38 35 31 29 27 26 26 27 27 28 29 30 31 33 35 37 37 37 35 34 34 35 36 35 33 31 34 37 39 39 39 40 40 39 38 37 36 35 37 37 36 35 34 34 36 38 38 39 39 40 41 42 42 43 42 43 44 44 45 45 45 46 46 46 46 46 46 46 46 45 45 44 43 44 45 47 48
45 45 44 44 43 42 41 40 37 34 31 28 27 27 27 27 27 27 27 28 29 31 33 35 36 37 37 36 37 37 37 37 35 33 33 34 37 39 40 40 40 40 39 38 38 38 37 37 37 38 37 35 34 34 35 35 36 36 36 36 37 38 39 38 38 39 40 40 41 42 43 44 44 44 45 45 45 45 46 46 45 45 45 46 47 48
44 43 43 42 41 40 39 36 33 30 28 27 27 28 28 28 27 27 27 27 28 29 31 32 34 36 37 38 38 39 38 37 36 34 34 36 38 40 42 42 41 39 38 37 37 37 36 36 36 36 36 36 35 34 33 33 32 31 31 32 33 35 36 37 37 37 38 38 38 39 39 40 40 41 41 42 42 43 43 44 45 45 46 46 48 49
43 42 41 40 39 38 36 33 30 28 27 27 28 28 28 28 27 27 26 26 26 27 28 29 31 32 34 37 39 40 40 39 37 35 35 37 40 42 43 42 40 38 37 37 36 35 35 36 37 36 36 36 36 34 32 30 29 29 30 32 34 37 38 39 39 40 40 40 40 40 40 40 40 40 40 40 40 40 40 42 43 44 45 46 47 49
41 40 39 38 37 36 34 31 29 28 28 28 28 28 28 27 26 26 25 25 25 26 27 27 28 29 31 33 36 38 40 40 38 36 36 37 39 40 41 40 39 38 38 38 38 38 37 38 39 38 36 34 33 32 30 30 30 32 35 38 40 40 41 40 40 40 41 41 41 41 40 40 40 39 39 38 38 38 40 41 42 43 43 44 45 46
39 39 38 36 35 33 32 30 29 28 28 29 28 28 28 26 25 25 24 24 25 26 27 28 29 29 30 31 33 35 37 38 37 35 34 33 33 34 37 38 38 37 38 39 40 40 40 40 39 37 35 32 31 31 32 33 35 38 40 42 43 43 42 42 41 40 40 39 40 40 39 39 38 38 37 37 36 37 38 40 41 42 42 42 43 44
37 37 36 35 33 32 31 30 29 29 29 29 29 28 27 26 24 24 24 25 26 27 28 29 30 31 31 31 32 32 33 33 33 31 29 28 27 29 32 34 36 36 37 37 38 38 39 38 37 36 34 33 33 34 35 37 38 40 42 43 43 43 42 41 41 40 39 39 39 39 39 38 38 38 37 37 36 36 36 37 38 38 39 40 41 42
36 35 35 33 32 31 30 30 29 29 29 29 29 28 27 25 24 24 25 26 27 28 29 30 31 31 31 31 30 29 29 28 27 26 25 25 26 28 30 32 34 34 34 33 34 34 36 36 36 36 35 35 36 37 39 39 40 41 42 42 42 41 40 40 40 40 40 40 39 39 39 39 38 38 37 37 36 36 35 36 36 36 36 37 38 39
35 34 33 32 31 30 29 29 29 30 30 30 30 28 26 25 24 25 26 27 28 29 29 30 30 31 30 29 28 27 26 25 25 25 25 25 26 27 28 30 31 32 32 32 32 33 34 35 36 37 38 38 38 39 40 40 40 40 40 39 37 37 39 40 40 40 40 39 39 39 39 39 38 37 37 36 36 35 35 35 35 35 35 35 36 38
34 33 33 31 30 30 29 29 30 30 31 31 29 27 25 24 24 26 27 28 29 29 30 30 31 31 30 29 28 26 25 25 24 24 25 25 25 26 27 28 30 31 32 32 32 32 33 34 35 36 37 37 38 39 38 39 39 38 36 35 35 36 38 39 39 39 39 38 38 37 37 37 37 37 36 36 35 35 35 35 36 36 35 35 36 37
33 32 32 31 30 30 30 30 31 31 31 30 28 25 23 23 24 26 28 29 30 30 30 31 31 32 32 31 29 27 25 25 24 24 25 25 25 26 27 28 29 29 30 31 32 32 33 33 33 34 35 36 36 37 38 38 37 35 33 33 34 35 37 38 39 38 37 37 37 36 35 35 35 35 36 36 36 36 36 36 36 36 36 36 37 37
32 31 30 30 29 30 30 31 32 32 31 29 27 24 22 22 23 25 27 29 30 31 31 31 31 32 33 33 31 29 27 26 25 25 26 26 27 27 28 28 28 28 29 30 31 33 34 34 33 34 34 34 34 34 35 35 34 32 31 31 32 33 33 36 38 39 37 36 35 34 34 33 34 34 34 34 35 35 36 36 36 36 36 37 37 38
30 30 29 29 29 30 31 31 32 31 31 28 26 24 22 21 22 24 26 28 30 30 30 30 31 31 32 32 33 32 31 29 28 27 27 28 28 28 29 29 29 29 29 29 30 32 34 35 35 35 34 33 32 32 31 31 30 30 31 32 32 32 32 35 37 37 36 36 35 34 33 32 33 33 34 34 34 34 34 34 34 34 35 35 35 36
29 28 28 28 29 30 30 31 31 31 30 27 25 23 22 21 22 24 26 28 29 30 30 30 31 31 32 33 33 33 34 33 32 31 30 30 30 30 30 30 30 30 30 30 31 31 32 33 34 35 35 33 31 29 28 27 28 29 31 32 33 34 34 35 35 35 34 34 34 33 32 31 32 33 34 35 34 33 33 32 32 32 32 32 32 32
28 27 27 28 28 29 30 30 31 30 29 26 24 23 21 21 22 23 25 27 28 29 29 29 30 31 32 33 33 34 34 35 34 34 33 33 32 32 31 31 31 32 32 32 32 31 31 31 32 33 33 32 30 28 26 25 26 29 31 33 35 35 36 36 35 34 33 33 33 33 32 31 32 34 35 35 34 33 33 32 31 31 30 30 30 30
27 27 27 28 28 29 29 30 30 29 27 25 24 22 21 21 22 23 25 26 27 28 29 29 29 30 31 32 33 33 34 35 35 36 36 35 35 34 33 33 32 32 32 32 31 31 30 29 29 29 28 28 27 27 26 25 26 29 32 34 35 36 36 36 35 34 33 32 32 32 32 32 33 34 35 35 35 34 34 32 31 30 29 29 29 29
26 26 27 27 28 28 29 29 28 27 26 25 24 22 21 21 22 24 25 25 26 27 28 29 30 31 31 32 32 32 32 33 34 35 36 36 36 35 35 34 34 33 32 32 31 30 29 28 26 25 25 25 25 26 26 27 28 30 33 34 35 35 35 35 35 34 33 32 31 31 31 32 33 35 35 36 36 36 35 33 31 30 28 28 28 29
25 25 26 26 27 27 28 27 27 25 25 24 24 23 22 21 22 23 24 25 25 26 27 29 30 31 32 32 32 32 31 32 34 35 36 36 36 36 35 35 35 35 35 34 33 33 32 31 28 25 23 23 23 25 26 28 31 32 33 34 34 34 34 34 34 33 33 32 31 31 31 31 32 33 34 36 36 36 36 34 32 30 28 27 28 28
25 24 25 25 26 26 26 26 25 24 23 23 23 23 23 23 22 22 23 24 25 26 27 28 29 30 31 32 32 32 32 33 34 35 35 35 35 36 36 36 36 37 37 36 36 35 35 34 33 30 26 23 22 23 26 29 32 33 33 33 32 32 32 33 33 33 32 32 32 32 32 32 32 33 34 35 35 36 36 35 33 31 28 27 27 28
25 24 24 25 25 25 24 23 22 22 22 22 23 23 24 24 23 23 23 23 24 25 26 27 28 29 31 31 32 32 32 33 34 35 35 35 35 35 35 35 36 36 36 36 35 35 34 33 32 32 30 27 24 23 25 28 31 32 32 32 31 31 31 32 32 32 31 31 31 32 32 33 33 34 34 35 35 35 35 35 34 32 29 28 28 28
Wind_Direction
301 303 304 305 305 305 306 307 308 308 308 309 310 311 311 311 310 310 310 310 309 309 309 308 308 308 308 308 308 308 307 307 307 308 308 308 308 307 307 306 305 304 304 303 303 303 302 301 299 298 297 296 295 293 291 288 286 285 283 282 281 280 279 278 277 277 276 275 274 273 273 272 271 270 269 269 268 268 268 267 267 267 267 267 267 267
302 303 304 304 305 305 306 307 308 308 308 309 310 310 311 310 310 309 309 308 307 307 306 306 306 306 306 307 307 306 306 306 306 307 307 307 307 306 306 304 303 301 300 299 299 299 300 299 298 297 297 296 295 293 291 290 288 287 285 284 282 281 280 278 277 277 276 276 275 274 273 272 271 270 270 269 269 268 268 267 267 267 266 267 267 266
302 303 304 305 305 305 305 307 308 308 308 308 308 309 309 309 308 307 307 307 306 305 304 304 304 305 305 306 306 306 306 306 306 306 305 305 305 305 304 302 300 298 297 296 296 296 297 297 296 295 295 294 293 292 291 289 288 287 286 285 284 283 282 281 279 278 277 276 275 274 273 272 271 271 270 270 269 269 269 268 268 267 267 267 267 267
301 302 304 305 306 305 305 306 308 308 307 307 307 308 308 306 306 306 306 306 305 305 305 304 304 305 305 305 305 305 305 305 304 303 302 302 302 301 299 298 297 296 294 294 294 295 296 296 295 293 293 292 292 292 291 289 288 287 286 285 284 284 283 282 281 280 279 277 276 275 274 273 272 272 271 271 270 270 269 269 268 268 268 268 267 267
301 302 303 304 305 305 305 306 306 306 306 306 306 306 306 305 305 305 305 305 305 305 305 305 304 303 303 303 304 304 303 302 302 301 300 299 298 297 296 295 294 293 293 294 294 295 294 294 293 292 291 291 291 291 291 290 288 287 285 284 283 283 282 282 282 281 280 279 278 276 275 274 273 273 272 272 271 271 271 270 269 268 268 267 267 267
300 301 302 303 303 303 304 305 305 305 306 306 306 305 305 305 305 304 304 304 304 304 304 303 302 302 301 302 303 303 302 301 300 300 299 298 297 296 295 295 295 294 295 296 296 295 293 291 291 290 291 291 291 291 291 291 290 288 286 285 284 283 283 282 282 282 281 281 280 278 277 275 274 273 273 272 271 271 271 270 270 269 268 267 267 267
300 301 302 302 302 302 302 303 304 304 305 305 306 306 306 305 305 304 303 304 304 304 303 303 303 302 302 302 303 303 303 301 300 299 299 298 297 297 295 294 294 294 295 296 296 295 293 292 291 291 291 291 291 291 292 292 291 290 288 287 286 286 285 285 284 284 283 282 281 280 279 278 276 275 274 273 273 272 271 271 270 269 268 268 267 266
299 301 301 301 302 303 302 302 303 304 304 305 305 305 305 306 305 304 304 305 304 304 304 304 304 303 302 303 303 303 302 301 301 300 300 298 297 297 295 294 294 294 295 295 295 295 294 293 292 291 291 291 291 292 292 293 292 291 290 289 288 288 288 288 288 287 286 285 284 283 281 280 279 278 276 275 274 273 272 271 271 270 269 268 267 266
296 299 300 300 301 302 302 302 303 303 304 304 303 303 304 305 305 306 305 304 304 303 303 303 303 302 301 302 302 301 300 299 300 300 299 298 297 296 296 295 294 294 293 293 293 293 292 292 291 290 289 289 289 290 291 292 292 291 290 289 289 289 289 289 289 289 288 287 286 284 283 282 280 279 278 277 275 274 273 272 271 270 269 269 268 267
294 296 298 300 300 300 300 301 302 304 304 303 302 301 300 301 303 305 305 304 303 302 302 301 300 300 300 300 300 300 299 299 299 298 298 297 296 296 295 294 293 291 290 290 289 288 287 287 287 286 285 284 285 286 287 289 290 290 289 289 288 288 289 289 289 289 288 287 286 285 284 282 281 280 278 277 275 274 273 272 271 270 269 269 268 267
294 295 296 298 299 299 298 298 300 303 304 303 302 301 299 299 300 302 303 303 303 303 302 300 299 298 299 299 300 301 300 300 300 299 298 297 296 296 295 293 291 290 290 289 287 285 284 283 283 282 282 282 283 284 285 287 288 288 287 287 286 286 287 287 287 287 287 286 286 285 283 282 281 279 278 276 275 273 272 271 270 269 269 268 267 267
293 294 295 296 297 298 298 298 299 301 303 303 303 302 301 301 300 300 300 300 301 302 303 302 300 299 298 299 300 301 301 300 299 298 298 298 297 297 296 294 294 293 293 291 289 287 285 284 283 283 282 283 284 284 285 286 285 285 284 284 283 284 284 284 283 284 284 284 283 282 281 280 279 278 277 276 274 273 271 270 269 269 268 267 267 266
291 293 294 295 295 296 297 299 300 301 302 302 301 301 300 301 301 300 298 298 299 301 302 302 301 300 299 299 300 300 300 298 297 296 296 295 295 295 295 295 294 294 293 292 290 289 289 288 287 286 285 286 286 286 286 285 284 282 281 281 281 281 281 281 281 281 281 280 279 278 277 277 276 276 275 274 273 272 271 270 269 268 268 267 266 266
291 292 293 293 294 295 296 298 299 299 300 299 299 299 299 300 301 300 298 297 298 300 301 300 300 300 300 300 300 300 299 298 297 296 294 293 294 294 295 294 293 293 292 291 289 289 290 290 289 288 287 287 287 287 286 285 283 282 281 281 280 279 279 279 279 279 278 277 276 276 276 275 275 275 274 274 273 272 271 270 269 268 268 267 266 266
291 292 292 292 293 294 295 296 297 297 298 299 299 299 300 300 300 299 298 298 299 301 301 300 300 300 301 301 301 301 301 299 298 297 295 294 294 295 295 295 294 293 292 291 290 290 289 289 288 287 286 286 286 285 284 283 282 281 281 281 280 279 278 278 278 278 277 276 276 275 275 275 275 274 274 273 272 271 271 270 269 268 268 267 266 266
290 290 290 291 292 293 294 294 295 296 297 298 299 298 298 299 299 300 299 299 300 301 301 301 302 302 301 301 302 301 301 299 298 296 295 294 294 295 295 295 293 292 291 291 290 289 289 287 286 285 284 284 284 284 283 282 281 281 281 280 280 279 279 278 277 277 277 276 276 276 275 274 274 274 273 273 272 271 271 270 269 268 268 267 267 266
288 289 289 290 291 292 294 294 294 294 296 298 299 298 298 297 298 299 299 299 300 300 300 300 301 301 301 302 302 301 301 299 297 296 295 294 295 295 295 293 292 291 291 291 290 288 288 288 287 286 285 285 284 284 283 282 281 280 280 280 280 279 279 278 278 277 277 276 276 276 275 275 274 274 273 273 272 272 271 270 270 269 268 268 267 267
288 288 288 289 289 291 293 294 294 294 295 297 299 299 299 298 298 298 298 298 298 298 298 298 298 298 298 299 300 301 301 300 298 296 295 294 294 295 295 294 292 291 291 291 291 291 291 290 290 290 289 288 287 286 284 283 282 281 280 280 279 279 278 278 277 277 276 276 275 275 275 275 275 274 273 273 273 272 272 271 270 270 269 268 268 267
287 288 288 288 289 290 292 294 294 295 296 297 299 299 298 298 298 297 296 296 296 295 296 295 295 295 294 295 297 299 301 300 298 296 295 293 294 295 296 295 293 292 291 291 292 293 293 293 293 293 292 291 290 288 287 286 285 284 283 282 281 280 279 278 277 276 275 274 274 274 274 274 274 274 274 273 273 273 272 271 271 270 269 269 268 268
288 289 288 288 289 291 292 293 294 295 296 297 298 298 298 298 298 297 296 296 295 295 295 294 294 294 294 294 295 298 300 300 298 296 294 293 293 294 295 295 294 292 291 291 292 293 293 293 292 291 291 291 290 290 289 288 287 286 285 284 282 281 280 279 278 277 276 275 274 273 273 273 273 273 273 273 273 273 272 272 271 270 270 269 268 268
290 289 290 290 289 289 290 292 294 296 297 298 298 298 298 298 298 297 297 297 297 296 295 294 293 293 294 294 295 296 298 298 297 295 294 293 292 293 295 295 294 293 291 291 291 292 292 292 291 291 290 291 290 289 289 288 287 286 285 284 283 283 282 281 280 278 277 276 275 274 273 272 272 272 272 272 273 273 273 272 272 271 270 269 269 268
291 291 292 293 291 289 290 293 296 298 299 300 299 297 297 297 297 298 298 298 298 297 296 294 293 293 293 293 293 294 295 295 294 293 293 292 291 292 295 295 294 292 291 291 292 292 292 291 290 290 290 291 290 289 288 287 285 284 283 282 282 282 282 281 280 279 278 277 276 275 274 273 272 272 271 271 271 272 272 272 272 271 271 270 269 268
294 293 293 294 294 294 295 296 299 300 301 300 299 296 296 295 296 297 297 297 296 295 294 293 293 292 292 292 292 293 294 294 293 292 291 289 289 291 295 296 294 291 289 290 292 292 292 291 290 290 290 291 291 290 289 288 287 284 283 282 281 281 281 280 279 279 278 277 276 275 275 274 273 272 271 271 270 270 270 271 271 271 271 270 269 269
296 295 296 296 297 298 298 299 299 298 298 296 295 293 293 293 293 293 293 292 292 292 292 293 293 294 294 294 294 295 295 295 294 292 289 287 288 290 293 295 294 292 290 291 292 293 292 291 291 291 291 292 292 291 290 289 288 286 285 283 282 282 282 282 281 280 278 277 276 276 275 274 273 273 272 271 270 270 269 269 269 269 269 269 269 269
293 294 294 295 296 295 295 294 293 292 291 291 291 291 292 292 291 290 289 289 290 292 294 295 295 295 295 296 296 296 297 297 295 292 290 288 289 291 292 294 293 292 291 293 293 293 293 292 292 292 292 292 292 292 291 290 289 288 286 285 284 285 286 287 286 284 282 279 277 276 276 276 275 274 273 272 271 270 269 269 269 269 268 268 268 268
287 288 289 291 292 292 292 291 290 289 289 289 290 291 291 290 290 290 290 291 293 295 296 296 295 294 295 296 296 296 297 298 296 294 291 290 290 291 292 293 293 292 292 293 294 294 293 293 292 292 292 292 292 292 292 291 290 289 288 287 287 286 287 288 288 287 285 282 280 279 278 277 276 275 274 273 272 271 270 269 269 268 268 268 268 268
289 290 292 293 294 295 295 294 293 292 291 290 289 289 289 289 291 292 293 294 295 297 297 295 295 295 296 296 296 296 298 298 297 295 294 291 290 290 291 293 294 294 294 294 295 294 294 293 292 292 292 292 292 293 293 292 292 291 290 290 288 287 286 286 286 287 287 286 285 283 281 279 277 276 275 274 273 272 271 270 270 269 269 269 269 268
296 296 297 297 298 298 297 296 295 293 293 293 292 292 292 293 293 293 293 295 297 298 296 294 293 294 296 296 296 297 298 297 297 297 297 294 290 288 291 295 296 296 296 296 296 296 294 292 291 292 292 292 293 293 293 293 293 293 292 290 289 287 286 287 288 289 290 289 288 285 283 281 279 278 277 275 274 273 272 272 271 271 270 269 269 268
299 299 299 299 299 298 297 296 296 297 297 297 298 298 297 295 293 292 293 297 299 299 296 294 293 293 294 296 297 298 298 297 298 301 301 297 292 290 293 296 297 297 298 298 299 298 295 293 291 292 293 294 294 294 294 294 294 293 292 291 290 290 289 289 290 290 291 291 289 286 284 282 280 279 278 277 276 275 274 273 273 272 271 269 268 267
301 301 300 300 300 300 300 300 300 301 301 301 301 300 298 295 293 294 297 301 302 300 297 296 294 294 295 297 298 298 298 298 300 303 304 299 296 295 297 297 297 297 299 299 299 299 298 296 294 294 295 296 295 294 294 295 295 295 295 294 294 293 293 293 292 292 292 292 289 286 284 282 281 280 278 277 276 275 275 274 273 272 271 269 268 267
301 300 300 301 302 302 303 303 303 303 303 302 301 299 298 298 300 303 306 307 305 302 298 296 295 295 295 296 296 296 296 298 301 304 304 301 297 296 298 298 298 298 299 298 298 298 299 299 299 298 297 297 296 296 296 297 298 298 298 298 298 297 297 296 296 295 294 293 291 288 286 285 283 281 279 278 277 276 275 274 273 272 270 269 267 266
301 301 301 302 304 304 305 305 304 303 302 301 301 301 304 307 310 311 311 310 307 303 299 297 296 295 295 294 292 292 293 297 301 304 304 301 299 298 299 299 299 299 300 298 296 294 296 297 299 300 301 300 300 300 301 301 302 303 303 302 301 301 300 300 298 297 295 294 292 291 289 287 285 283 281 279 278 277 276 275 273 272 270 268 267 266
302 303 303 304 305 305 305 304 303 302 302 303 305 309 313 315 315 313 312 309 307 304 300 297 296 296 296 294 293 292 293 296 300 304 305 302 300 299 300 300 300 300 300 299 296 294 292 293 297 301 303 304 304 304 304 305 305 306 305 304 303 304 305 305 305 303 301 299 296 294 292 290 288 286 284 282 280 278 276 275 274 272 269 268 267 266
303 303 304 305 305 305 305 304 303 303 305 308 312 316 318 317 315 313 310 308 306 304 301 299 298 298 298 297 296 295 296 298 302 305 307 304 302 301 301 301 300 300 301 300 299 297 295 296 299 303 305 305 305 305 305 305 306 306 305 304 304 306 308 310 310 310 308 305 303 300 298 295 293 291 289 287 285 283 281 279 276 273 270 268 266 266
303 304 304 305 306 306 305 304 304 306 309 313 317 318 318 316 314 312 310 309 308 306 306 305 304 302 301 300 298 298 299 302 305 308 308 306 304 303 302 301 301 301 302 301 300 301 301 301 303 304 305 305 305 305 305 305 306 305 304 304 306 307 309 310 311 310 309 308 306 304 302 300 298 295 293 291 289 288 286 283 280 277 274 271 268 266
303 304 305 305 306 306 306 306 308 310 314 316 318 317 316 314 312 311 311 312 312 313 312 312 311 309 307 304 301 300 302 305 308 309 308 306 305 303 301 301 301 302 302 302 302 303 304 305 304 304 303 303 303 304 305 306 306 306 306 308 311 312 313 313 313 312 312 311 310 308 307 306 304 301 297 293 290 287 285 283 281 279 277 275 272 269
304 304 305 306 306 306 307 309 311 313 315 316 317 316 315 314 313 314 315 317 318 319 319 317 316 314 312 309 306 304 304 305 307 308 307 306 305 304 302 303 304 304 303 302 303 304 306 305 305 304 303 301 300 302 304 305 306 306 308 311 314 316 316 316 315 315 315 314 313 312 312 311 309 307 303 299 294 290 287 283 281 280 279 277 275 273
305 305 305 305 306 307 308 310 312 313 315 316 316 316 315 315 316 318 320 322 324 324 323 321 318 316 314 311 308 306 305 305 306 307 309 311 312 311 307 306 305 304 303 303 305 306 307 304 303 302 302 301 300 300 302 304 305 306 308 311 314 315 316 316 316 316 316 315 315 315 314 313 312 310 308 306 303 299 295 292 288 286 284 282 280 278
306 305 305 305 305 306 308 309 311 313 315 316 316 315 316 317 319 322 325 326 327 326 324 321 318 316 313 311 310 309 309 310 312 315 318 320 319 315 310 307 305 306 308 310 311 311 308 304 301 300 300 301 301 302 303 304 304 305 308 311 314 315 315 315 316 316 317 317 317 317 316 315 314 312 310 308 306 303 298 296 294 292 290 288 285 283
306 305 304 304 304 305 307 309 311 314 316 316 316 316 318 321 324 326 328 328 328 326 324 321 318 316 315 315 315 316 317 319 322 324 325 324 321 317 313 310 310 312 315 317 316 314 310 306 304 302 302 301 301 303 304 305 306 307 309 312 314 315 315 315 316 317 318 318 318 317 317 315 314 313 311 309 305 302 298 296 295 293 291 288 285 284
305 304 302 303 304 305 307 310 313 315 316 317 317 318 321 325 329 330 330 329 328 326 324 323 321 321 320 321 322 324 326 327 329 329 328 326 324 321 319 317 316 317 318 318 317 316 314 310 308 307 306 305 305 305 305 306 308 309 312 314 316 316 315 315 316 317 318 318 317 317 316 316 314 313 312 310 307 304 303 301 299 298 296 294 290 286
304 302 301 302 304 307 309 312 313 315 316 317 317 318 322 327 329 330 329 328 327 326 326 326 326 325 325 326 329 331 332 332 332 332 331 330 329 327 324 322 321 321 320 319 319 319 318 316 313 310 309 309 308 308 307 309 310 312 315 317 318 318 317 316 316 317 318 318 318 317 318 317 317 315 313 311 309 307 306 304 302 300 298 296 294 291
302 301 301 303 306 309 311 312 313 314 315 316 316 318 323 328 331 330 328 326 325 326 328 328 328 328 327 328 330 333 335 336 336 336 335 334 333 330 328 326 325 325 324 322 321 322 323 321 318 315 314 314 312 310 309 310 312 314 316 317 319 319 317 316 316 317 319 319 320 320 320 320 319 317 315 312 309 307 305 304 302 300 299 297 296 294
302 301 302 304 307 309 310 311 311 312 314 315 317 319 324 330 332 331 328 325 325 327 329 330 331 330 329 328 329 332 334 337 339 339 338 337 334 332 330 329 329 330 329 327 325 324 325 323 321 319 318 316 313 310 309 310 313 315 316 316 317 317 316 316 318 321 322 322 322 322 323 323 322 321 318 315 312 309 307 306 304 303 301 299 297 295
303 303 304 305 307 307 308 308 309 311 313 315 317 320 324 329 332 330 327 326 326 328 330 332 332 330 327 327 328 330 332 335 338 339 338 337 335 334 333 332 333 333 332 331 329 327 325 322 320 319 318 314 310 308 307 310 314 316 316 315 316 316 316 318 320 324 325 325 325 324 325 326 326 324 322 319 317 315 313 311 309 307 304 302 300 297
305 304 304 305 305 306 306 307 309 311 313 316 318 320 324 328 330 330 328 327 327 329 332 334 333 329 326 326 328 329 330 332 335 336 337 337 337 336 336 336 335 334 333 331 329 327 325 322 319 317 314 310 307 306 307 311 314 316 315 316 317 318 319 320 322 325 327 328 327 327 328 329 329 327 324 322 320 319 317 315 313 312 309 306 303 301
306 305 305 305 305 305 305 307 308 311 313 316 318 320 323 327 329 328 327 327 329 331 334 335 333 330 327 327 328 328 328 329 331 333 335 337 338 338 338 337 336 334 332 329 327 326 324 322 319 316 312 310 309 308 309 312 313 314 315 316 318 320 321 322 323 325 328 329 330 330 331 333 332 329 326 324 323 321 320 318 317 315 313 311 309 307
308 307 306 305 304 304 305 306 308 310 313 316 318 320 323 326 327 326 326 329 332 335 335 335 332 330 328 329 329 330 329 328 328 331 334 336 338 339 338 337 336 334 331 329 328 327 326 326 324 319 315 312 311 311 311 312 312 313 314 316 319 320 321 322 323 326 328 330 331 333 335 336 334 331 329 327 325 323 322 321 320 318 317 316 315 313
310 309 308 307 306 306 305 306 308 311 314 317 319 321 322 324 325 325 327 331 335 336 335 334 332 330 329 329 331 332 331 329 330 332 334 337 338 338 338 337 336 335 334 333 332 332 332 332 332 330 326 320 316 314 313 312 312 313 314 316 318 320 321 322 323 326 330 331 333 335 338 338 338 336 332 328 325 323 324 323 323 322 321 321 320 318
313 312 312 311 310 308 308 308 310 313 316 318 319 320 321 322 324 326 329 332 335 336 335 334 333 331 330 330 331 332 331 330 331 333 335 338 338 337 337 337 336 336 335 335 335 334 333 333 334 337 339 335 328 320 316 315 315 316 316 317 319 321 322 323 325 327 331 333 335 337 340 340 341 340 336 330 326 325 325 325 325 325 325 325 324 323
317 316 315 315 313 311 310 310 312 314 316 317 317 318 319 321 324 327 330 333 335 335 335 335 334 332 330 330 331 331 331 331 331 333 335 338 338 337 336 336 337 336 335 334 333 332 331 329 330 333 337 341 338 330 324 321 321 320 320 320 321 322 324 325 326 328 331 334 336 339 341 342 342 341 338 334 329 327 326 326 327 328 330 330 330 328